When you browse on this site, cookies collect data to enhance your experience and personalize the content and advertising you see.
Visit our Privacy Policy to learn more. By continuing to use the site, you agree to this use of cookies and data.
  • In Lithuania
  • List of Countries
  • For 7 days
  • Water Temperature
  • Satellite Maps
  • Weather Map
  • Weather Widgets
  • user-avatar
    Login

    Hourly Weather Volochaivka

    Today, 10 December, Monday

    Time Temperature Precipitation Wind Pressure Humidity
    00:00 +5°C° 0.1 mm 3 mps 749 mmHg 87%
    01:00 +5°C° 0.1 mm 3 mps 749 mmHg 86%
    02:00 +6°C° 0 mm 2 mps 748 mmHg 88%
    03:00 +6°C° 0.5 mm 2 mps 748 mmHg 88%
    04:00 +6°C° 0.5 mm 2 mps 748 mmHg 88%
    05:00 +6°C° 0.5 mm 2 mps 748 mmHg 88%
    06:00 +6°C° 0.6 mm 2 mps 747 mmHg 89%
    07:00 +7°C° 0.6 mm 1 mps 747 mmHg 89%
    08:00 +7°C° 0 mm 1 mps 747 mmHg 88%
    09:00 +8°C° 0.3 mm 1 mps 747 mmHg 85%
    10:00 +8°C° 0.3 mm 1 mps 747 mmHg 83%
    11:00 +7°C° 0.3 mm 2 mps 747 mmHg 81%
    12:00 +8°C° 0.2 mm 1 mps 747 mmHg 81%
    13:00 +8°C° 0.2 mm 1 mps 747 mmHg 82%
    14:00 +8°C° 0.2 mm 1 mps 747 mmHg 83%
    15:00 +8°C° 0 mm 1 mps 747 mmHg 85%
    16:00 +7°C° 0 mm 2 mps 748 mmHg 87%
    17:00 +6°C° 0 mm 2 mps 748 mmHg 89%
    18:00 +6°C° 0 mm 2 mps 748 mmHg 90%
    19:00 +6°C° 0 mm 2 mps 748 mmHg 91%
    20:00 +6°C° 0 mm 2 mps 748 mmHg 92%
    21:00 +5°C° 0 mm 2 mps 748 mmHg 93%
    22:00 +5°C° 0 mm 2 mps 748 mmHg 94%
    23:00 +5°C° 0 mm 2 mps 748 mmHg 95%

    Tomorrow, 11 December, Tuesday

    Time Temperature Precipitation Wind Pressure Humidity
    00:00 +4°C° 0 mm 3 mps 748 mmHg 95%
    01:00 +4°C° 0 mm 4 mps 748 mmHg 95%
    02:00 +3°C° 0 mm 5 mps 747 mmHg 95%
    03:00 +3°C° 0.2 mm 6 mps 746 mmHg 94%
    04:00 +3°C° 0.2 mm 7 mps 746 mmHg 93%
    05:00 +3°C° 0.2 mm 7 mps 745 mmHg 92%
    06:00 +2°C° 2.3 mm 8 mps 745 mmHg 92%
    07:00 +2°C° 2.3 mm 9 mps 744 mmHg 92%
    08:00 +2°C° 2.3 mm 10 mps 743 mmHg 93%
    09:00 +3°C° 2.5 mm 9 mps 743 mmHg 92%
    10:00 +3°C° 2.5 mm 9 mps 743 mmHg 90%
    11:00 +5°C° 2.5 mm 8 mps 743 mmHg 89%
    12:00 +5°C° 1.4 mm 8 mps 742 mmHg 91%
    13:00 +3°C° 1.4 mm 9 mps 741 mmHg 92%
    14:00 +3°C° 1.4 mm 9 mps 741 mmHg 94%
    15:00 +3°C° 3.2 mm 9 mps 741 mmHg 93%
    16:00 +2°C° 3.2 mm 10 mps 741 mmHg 93%
    17:00 +2°C° 3.2 mm 10 mps 741 mmHg 92%
    18:00 +1°C° 1.8 mm 11 mps 742 mmHg 90%
    19:00 0°C° 1.8 mm 12 mps 742 mmHg 88%
    20:00 0°C° 1.8 mm 12 mps 742 mmHg 86%
    21:00 0°C° 1.4 mm 13 mps 743 mmHg 85%
    22:00 0°C° 1.4 mm 13 mps 744 mmHg 84%
    23:00 0°C° 1.4 mm 14 mps 744 mmHg 83%

    Day after tomorrow, 12 December, Wednesday

    Time Temperature Precipitation Wind Pressure Humidity
    00:00 0°C° 0.6 mm 13 mps 745 mmHg 82%
    01:00 0°C° 0.6 mm 13 mps 746 mmHg 81%
    02:00 0°C° 0.6 mm 13 mps 747 mmHg 79%
    03:00 0°C° 0.1 mm 12 mps 747 mmHg 79%
    04:00 +1°C° 0.1 mm 11 mps 748 mmHg 79%
    05:00 +1°C° 0.1 mm 10 mps 748 mmHg 79%
    06:00 +1°C° 0 mm 9 mps 749 mmHg 79%
    07:00 +1°C° 0 mm 8 mps 749 mmHg 80%
    08:00 +1°C° 0 mm 8 mps 750 mmHg 80%
    09:00 +1°C° 0 mm 8 mps 750 mmHg 77%
    10:00 +2°C° 0 mm 8 mps 751 mmHg 73%
    11:00 +2°C° 0 mm 8 mps 751 mmHg 70%
    12:00 +2°C° 0 mm 8 mps 751 mmHg 69%
    13:00 +3°C° 0 mm 7 mps 751 mmHg 68%
    14:00 +3°C° 0 mm 7 mps 752 mmHg 67%
    15:00 +3°C° 0 mm 6 mps 752 mmHg 70%
    16:00 +2°C° 0 mm 6 mps 752 mmHg 73%
    17:00 +1°C° 0 mm 5 mps 753 mmHg 76%
    18:00 +1°C° 0 mm 5 mps 753 mmHg 76%
    19:00 +1°C° 0 mm 5 mps 753 mmHg 76%
    20:00 +1°C° 0 mm 4 mps 754 mmHg 76%
    21:00 +1°C° 0 mm 4 mps 754 mmHg 76%
    22:00 0°C° 0 mm 4 mps 754 mmHg 75%
    23:00 0°C° 0 mm 4 mps 755 mmHg 75%

    13 December, Thursday

    Time Temperature Precipitation Wind Pressure Humidity
    00:00 0°C° 0 mm 4 mps 755 mmHg 74%
    01:00 0°C° 0 mm 4 mps 755 mmHg 74%
    02:00 0°C° 0 mm 4 mps 755 mmHg 74%
    03:00 0°C° 0.1 mm 4 mps 755 mmHg 74%
    04:00 0°C° 0.1 mm 4 mps 755 mmHg 74%
    05:00 0°C° 0.1 mm 4 mps 755 mmHg 74%
    06:00 0°C° 0.1 mm 4 mps 756 mmHg 75%
    07:00 +1°C° 0.1 mm 3 mps 756 mmHg 75%
    08:00 +1°C° 0.1 mm 3 mps 756 mmHg 76%
    09:00 +1°C° 0.1 mm 4 mps 756 mmHg 73%
    10:00 +4°C° 0.1 mm 4 mps 757 mmHg 69%
    11:00 +5°C° 0.1 mm 4 mps 757 mmHg 66%
    12:00 +5°C° 0.3 mm 5 mps 757 mmHg 65%
    13:00 +5°C° 0.2 mm 5 mps 757 mmHg 64%
    14:00 +5°C° 0.2 mm 5 mps 756 mmHg 64%
    15:00 +5°C° 0.2 mm 5 mps 756 mmHg 67%
    16:00 +4°C° 0.2 mm 4 mps 756 mmHg 71%
    17:00 +3°C° 0.2 mm 4 mps 756 mmHg 75%
    18:00 +3°C° 0.2 mm 4 mps 757 mmHg 75%
    19:00 +1°C° 0.2 mm 4 mps 757 mmHg 75%
    20:00 +1°C° 0.2 mm 4 mps 757 mmHg 75%
    21:00 +2°C° 0 mm 3 mps 757 mmHg 75%
    22:00 +2°C° 0 mm 3 mps 757 mmHg 75%
    23:00 +2°C° 0 mm 3 mps 758 mmHg 74%

    14 December, Friday

    Time Temperature Precipitation Wind Pressure Humidity
    00:00 +3°C° 0 mm 2 mps 757 mmHg 74%
    01:00 +3°C° 0 mm 2 mps 757 mmHg 74%
    02:00 +3°C° 0 mm 2 mps 757 mmHg 74%
    03:00 +3°C° 0 mm 2 mps 757 mmHg 74%
    04:00 +3°C° 0 mm 2 mps 758 mmHg 74%
    05:00 +4°C° 0 mm 1 mps 758 mmHg 75%
    06:00 +4°C° 0 mm 1 mps 758 mmHg 75%
    07:00 +4°C° 0 mm 1 mps 758 mmHg 76%
    08:00 +4°C° 0 mm 1 mps 758 mmHg 77%
    09:00 +5°C° 0.1 mm 1 mps 759 mmHg 74%
    10:00 +6°C° 0.1 mm 1 mps 759 mmHg 72%
    11:00 +7°C° 0.1 mm 1 mps 760 mmHg 70%
    12:00 +7°C° 0.1 mm 1 mps 760 mmHg 70%
    13:00 +6°C° 0.1 mm 2 mps 760 mmHg 70%
    14:00 +6°C° 0.1 mm 2 mps 760 mmHg 70%
    15:00 +5°C° 0 mm 2 mps 761 mmHg 73%
    16:00 +3°C° 0 mm 3 mps 761 mmHg 76%
    17:00 +2°C° 0 mm 3 mps 762 mmHg 80%
    18:00 +2°C° 0 mm 3 mps 762 mmHg 81%
    19:00 +1°C° 0 mm 3 mps 762 mmHg 83%
    20:00 +1°C° 0 mm 3 mps 763 mmHg 85%
    21:00 0°C° 0 mm 3 mps 763 mmHg 85%
    22:00 0°C° 0 mm 3 mps 763 mmHg 85%
    23:00 0°C° 0 mm 3 mps 764 mmHg 86%

    15 December, Saturday

    Time Temperature Precipitation Wind Pressure Humidity
    00:00 -1°C° 0 mm 3 mps 764 mmHg 85%
    01:00 -1°C° 0 mm 3 mps 764 mmHg 85%
    02:00 -1°C° 0 mm 3 mps 764 mmHg 84%
    03:00 -1°C° 0 mm 3 mps 764 mmHg 85%
    04:00 -2°C° 0 mm 3 mps 765 mmHg 86%
    05:00 -2°C° 0 mm 3 mps 765 mmHg 87%
    06:00 -2°C° 0 mm 3 mps 765 mmHg 87%
    07:00 -2°C° 0 mm 3 mps 766 mmHg 88%
    08:00 -2°C° 0 mm 3 mps 766 mmHg 89%
    09:00 -1°C° 0 mm 3 mps 766 mmHg 84%
    10:00 0°C° 0 mm 3 mps 767 mmHg 79%
    11:00 +2°C° 0 mm 2 mps 767 mmHg 74%
    12:00 +3°C° 0 mm 2 mps 767 mmHg 73%
    13:00 +3°C° 0 mm 2 mps 767 mmHg 72%
    14:00 +2°C° 0 mm 3 mps 767 mmHg 70%
    15:00 +1°C° 0 mm 3 mps 767 mmHg 75%
    16:00 +1°C° 0 mm 3 mps 768 mmHg 79%
    17:00 0°C° 0 mm 3 mps 768 mmHg 83%
    18:00 0°C° 0 mm 3 mps 768 mmHg 84%
    19:00 -1°C° 0 mm 3 mps 768 mmHg 85%
    20:00 -1°C° 0 mm 3 mps 768 mmHg 86%
    21:00 -1°C° 0 mm 3 mps 768 mmHg 86%
    22:00 -1°C° 0 mm 3 mps 769 mmHg 86%
    23:00 -1°C° 0 mm 3 mps 769 mmHg 86%
    Show more